Retour au catalogue

QIANFAN-105

ActifCommunicationsPO
NORAD 66047·PAYLOAD·🇨🇳 China

Lancé Oct 17, 2025 depuis Taiyuan Satellite Launch Center

Loading…

Prochains Passages (prochaines 24 heures)

TLE

FraisSource: Space-Track

Époque: Sep 14, 2026, 08:47 UTC

1 66047U 25233Q   26257.36601095  .00000063  00000-0  79775-4 0  9998
2 66047  89.0071  33.9449 0001860  97.1136 263.0226 13.50988347 45383

Suivez QIANFAN-105 en temps réel avec AllMySat

Download on the App Store